﻿"﻿最低氣溫 (攝氏度) - �ʤh�f"
"Minimum Temperature (°C) - King's Park"
年/Year,月/Month,日/Day,數值/Value,"數據完整性/data Completeness"
1992,7,1,27.3,#
1992,7,2,27.4,#
1992,7,3,28.2,C
1992,7,4,28.2,C
1992,7,5,28.1,C
1992,7,6,24.2,#
1992,7,7,23.2,#
1992,7,8,23.1,#
1992,7,9,24.8,#
1992,7,10,25.2,C
1992,7,11,25.2,C
1992,7,12,24.5,C
1992,7,13,25.0,C
1992,7,14,25.6,#
1992,7,15,25.4,#
1992,7,16,26.2,C
1992,7,17,25.3,#
1992,7,18,23.0,C
1992,7,19,25.8,C
1992,7,20,25.6,#
1992,7,21,25.6,#
1992,7,22,24.3,#
1992,7,23,24.2,C
1992,7,24,26.1,C
1992,7,25,26.2,C
1992,7,26,26.1,C
1992,7,27,26.8,C
1992,7,28,26.5,#
1992,7,29,26.2,C
1992,7,30,26.8,#
1992,7,31,27.5,C
1992,8,1,27.4,C
1992,8,2,26.8,C
1992,8,3,27.4,#
1992,8,4,27.4,#
1992,8,5,27.6,#
1992,8,6,27.7,#
1992,8,7,27.9,#
1992,8,8,25.7,C
1992,8,9,27.2,C
1992,8,10,26.3,#
1992,8,11,26.1,C
1992,8,12,26.5,#
1992,8,13,25.9,#
1992,8,14,26.6,#
1992,8,15,25.9,C
1992,8,16,25.9,C
1992,8,17,26.3,C
1992,8,18,27.4,#
1992,8,19,27.7,C
1992,8,20,26.4,C
1992,8,21,25.2,#
1992,8,22,25.3,C
1992,8,23,25.7,C
1992,8,24,26.0,#
1992,8,25,25.9,#
1992,8,26,27.2,C
1992,8,27,26.8,#
1992,8,28,26.2,C
1992,8,29,28.3,C
1992,8,30,30.4,C
1992,8,31,29.6,C
1992,9,1,29.3,C
1992,9,2,28.5,C
1992,9,3,28.5,C
1992,9,4,28.9,C
1992,9,5,25.5,#
1992,9,6,24.2,C
1992,9,7,25.2,C
1992,9,8,25.8,#
1992,9,9,26.4,C
1992,9,10,26.4,C
1992,9,11,24.9,#
1992,9,12,26.5,C
1992,9,13,26.6,C
1992,9,14,26.9,#
1992,9,15,27.4,#
1992,9,16,25.6,#
1992,9,17,25.4,#
1992,9,18,26.0,C
1992,9,19,24.8,C
1992,9,20,26.1,C
1992,9,21,26.8,#
1992,9,22,27.0,#
1992,9,23,26.1,#
1992,9,24,26.9,C
1992,9,25,26.9,C
1992,9,26,26.0,C
1992,9,27,23.8,C
1992,9,28,24.1,#
1992,9,29,24.4,C
1992,9,30,24.8,C
1992,10,1,24.8,C
1992,10,2,25.4,C
1992,10,3,24.6,C
1992,10,4,25.9,C
1992,10,5,23.5,C
1992,10,6,21.8,C
1992,10,7,22.6,C
1992,10,8,22.6,#
1992,10,9,23.1,#
1992,10,10,22.5,#
1992,10,11,22.8,C
1992,10,12,22.1,#
1992,10,13,21.4,#
1992,10,14,20.5,#
1992,10,15,21.0,#
1992,10,16,21.1,#
1992,10,17,20.8,C
1992,10,18,21.0,C
1992,10,19,20.6,C
1992,10,20,20.2,#
1992,10,21,20.2,#
1992,10,22,19.9,C
1992,10,23,21.2,C
1992,10,24,20.2,C
1992,10,25,19.9,C
1992,10,26,19.1,#
1992,10,27,19.5,#
1992,10,28,19.8,C
1992,10,29,21.2,C
1992,10,30,20.5,#
1992,10,31,20.9,C
1992,11,1,20.2,C
1992,11,2,20.3,C
1992,11,3,19.1,#
1992,11,4,19.7,C
1992,11,5,21.2,C
1992,11,6,21.0,C
1992,11,7,20.2,C
1992,11,8,18.3,C
1992,11,9,14.8,#
1992,11,10,12.2,#
1992,11,11,13.2,C
1992,11,12,15.7,#
1992,11,13,16.6,#
1992,11,14,17.2,C
1992,11,15,18.9,C
1992,11,16,20.1,#
1992,11,17,18.8,#
1992,11,18,19.8,C
1992,11,19,20.9,C
1992,11,20,15.5,C
1992,11,21,13.4,C
1992,11,22,16.4,C
1992,11,23,17.5,#
1992,11,24,17.1,C
1992,11,25,17.3,#
1992,11,26,18.0,#
1992,11,27,15.5,C
1992,11,28,14.7,C
1992,11,29,15.7,C
1992,11,30,16.2,C
1992,12,1,16.8,#
1992,12,2,17.4,C
1992,12,3,17.6,C
1992,12,4,16.7,C
1992,12,5,17.9,C
1992,12,6,19.1,C
1992,12,7,19.3,#
1992,12,8,19.4,#
1992,12,9,18.8,C
1992,12,10,18.7,C
1992,12,11,18.4,#
1992,12,12,17.7,#
1992,12,13,18.6,#
1992,12,14,13.5,C
1992,12,15,11.4,#
1992,12,16,10.5,#
1992,12,17,14.1,#
1992,12,18,15.7,C
1992,12,19,17.2,C
1992,12,20,18.2,C
1992,12,21,18.7,#
1992,12,22,18.3,#
1992,12,23,13.1,C
1992,12,24,12.1,C
1992,12,25,15.2,C
1992,12,26,15.9,C
1992,12,27,18.2,C
1992,12,28,18.7,C
1992,12,29,17.0,#
1992,12,30,16.8,C
1992,12,31,15.0,C
1993,1,1,14.5,C
1993,1,2,14.7,C
1993,1,3,16.2,C
1993,1,4,16.5,C
1993,1,5,17.1,#
1993,1,6,16.6,#
1993,1,7,18.1,#
1993,1,8,17.9,#
1993,1,9,17.0,C
1993,1,10,17.3,#
1993,1,11,18.2,#
1993,1,12,17.2,#
1993,1,13,17.6,C
1993,1,14,13.9,#
1993,1,15,5.8,C
1993,1,16,5.1,C
1993,1,17,6.1,#
1993,1,18,5.5,#
1993,1,19,7.1,#
1993,1,20,10.0,C
1993,1,21,8.4,#
1993,1,22,9.7,#
1993,1,23,7.6,C
1993,1,24,6.8,C
1993,1,25,7.5,#
1993,1,26,9.3,#
1993,1,27,10.8,#
1993,1,28,7.7,C
1993,1,29,7.9,#
1993,1,30,10.4,C
1993,1,31,11.1,#
1993,2,1,12.3,C
1993,2,2,11.7,#
1993,2,3,12.2,C
1993,2,4,13.3,C
1993,2,5,14.6,#
1993,2,6,16.6,C
1993,2,7,16.1,C
1993,2,8,15.2,C
1993,2,9,16.0,#
1993,2,10,15.5,#
1993,2,11,15.3,C
1993,2,12,16.5,C
1993,2,13,14.1,C
1993,2,14,15.7,C
1993,2,15,16.5,C
1993,2,16,18.1,#
1993,2,17,16.7,#
1993,2,18,17.2,C
1993,2,19,18.0,C
1993,2,20,17.9,C
1993,2,21,18.7,#
1993,2,22,17.2,C
1993,2,23,14.3,#
1993,2,24,14.6,C
1993,2,25,14.2,#
1993,2,26,14.3,C
1993,2,27,16.4,C
1993,2,28,15.1,C
1993,3,1,12.7,C
1993,3,2,13.6,#
1993,3,3,15.0,#
1993,3,4,14.3,#
1993,3,5,16.4,#
1993,3,6,17.7,C
1993,3,7,18.7,C
1993,3,8,16.9,C
1993,3,9,16.6,#
1993,3,10,17.2,#
1993,3,11,16.8,#
1993,3,12,18.3,C
1993,3,13,16.5,C
1993,3,14,17.5,C
1993,3,15,20.8,C
1993,3,16,17.6,#
1993,3,17,14.7,C
1993,3,18,12.4,C
1993,3,19,11.0,#
1993,3,20,12.1,C
1993,3,21,13.7,C
1993,3,22,16.7,C
1993,3,23,18.7,#
1993,3,24,19.7,C
1993,3,25,22.8,#
1993,3,26,22.4,#
1993,3,27,23.2,C
1993,3,28,23.4,#
1993,3,29,16.0,C
1993,3,30,15.6,#
1993,3,31,17.0,C
1993,4,1,19.1,C
1993,4,2,22.2,#
1993,4,3,22.5,C
1993,4,4,23.1,#
1993,4,5,17.7,C
1993,4,6,16.4,C
1993,4,7,13.9,#
1993,4,8,14.4,#
1993,4,9,15.4,C
1993,4,10,16.8,C
1993,4,11,18.0,C
1993,4,12,17.3,C
1993,4,13,16.9,C
1993,4,14,17.8,C
1993,4,15,19.6,C
1993,4,16,20.1,C
1993,4,17,20.0,C
1993,4,18,18.3,#
1993,4,19,19.4,C
1993,4,20,20.5,#
1993,4,21,20.6,C
1993,4,22,20.4,C
1993,4,23,23.3,C
1993,4,24,24.7,C
1993,4,25,19.3,C
1993,4,26,18.6,C
1993,4,27,20.3,#
1993,4,28,24.4,#
1993,4,29,21.5,C
1993,4,30,20.2,C
1993,5,1,22.3,C
1993,5,2,21.7,C
1993,5,3,21.1,C
1993,5,4,19.9,C
1993,5,5,20.7,C
1993,5,6,22.9,C
1993,5,7,25.2,#
1993,5,8,25.7,C
1993,5,9,21.4,C
1993,5,10,22.4,C
1993,5,11,22.9,#
1993,5,12,23.8,C
1993,5,13,24.8,C
1993,5,14,25.4,#
1993,5,15,24.5,C
1993,5,16,23.7,C
1993,5,17,24.3,#
1993,5,18,24.4,C
1993,5,19,24.9,C
1993,5,20,25.0,C
1993,5,21,25.9,C
1993,5,22,25.7,C
1993,5,23,24.0,#
1993,5,24,23.6,C
1993,5,25,23.3,C
1993,5,26,24.0,#
1993,5,27,24.4,#
1993,5,28,25.3,#
1993,5,29,22.7,C
1993,5,30,23.5,C
1993,5,31,25.5,#
1993,6,1,28.0,C
1993,6,2,25.2,C
1993,6,3,24.3,#
1993,6,4,23.5,C
1993,6,5,27.7,C
1993,6,6,25.6,C
1993,6,7,25.2,#
1993,6,8,27.7,#
1993,6,9,24.7,#
1993,6,10,24.6,C
1993,6,11,23.6,#
1993,6,12,27.6,C
1993,6,13,25.6,C
1993,6,14,28.3,C
1993,6,15,26.6,#
1993,6,16,23.7,#
1993,6,17,27.8,#
1993,6,18,26.9,#
1993,6,19,26.9,C
1993,6,20,27.2,C
1993,6,21,26.8,C
1993,6,22,26.9,#
1993,6,23,26.8,C
1993,6,24,25.8,C
1993,6,25,26.2,#
1993,6,26,25.6,C
1993,6,27,24.7,C
1993,6,28,23.9,#
1993,6,29,24.1,#
1993,6,30,27.0,#
1993,7,1,27.4,#
1993,7,2,26.9,C
1993,7,3,27.5,C
1993,7,4,27.9,C
1993,7,5,27.6,C
1993,7,6,27.5,#
1993,7,7,27.5,C
1993,7,8,27.5,#
1993,7,9,26.7,C
1993,7,10,24.2,#
1993,7,11,24.5,C
1993,7,12,24.7,C
1993,7,13,23.4,#
1993,7,14,23.9,C
1993,7,15,26.3,C
1993,7,16,27.3,#
1993,7,17,27.5,#
1993,7,18,27.8,C
1993,7,19,28.1,C
1993,7,20,28.5,C
1993,7,21,28.3,#
1993,7,22,24.1,C
1993,7,23,27.4,C
1993,7,24,27.5,C
1993,7,25,27.7,#
1993,7,26,27.9,C
1993,7,27,28.0,C
1993,7,28,28.0,#
1993,7,29,27.5,C
1993,7,30,27.5,C
1993,7,31,25.6,C
1993,8,1,25.7,#
1993,8,2,25.7,#
1993,8,3,25.2,C
1993,8,4,27.2,#
1993,8,5,27.2,#
1993,8,6,27.5,#
1993,8,7,27.6,#
1993,8,8,25.6,C
1993,8,9,28.1,C
1993,8,10,25.6,#
1993,8,11,27.2,#
1993,8,12,26.7,#
1993,8,13,25.7,C
1993,8,14,26.1,C
1993,8,15,25.4,#
1993,8,16,24.9,#
1993,8,17,25.0,#
1993,8,18,25.8,C
1993,8,19,26.9,#
1993,8,20,24.5,C
1993,8,21,25.5,#
1993,8,22,25.9,#
1993,8,23,25.7,#
1993,8,24,24.8,C
1993,8,25,25.9,C
1993,8,26,26.3,C
1993,8,27,26.5,C
1993,8,28,26.9,C
1993,8,29,26.5,C
1993,8,30,26.2,#
1993,8,31,25.7,C
1993,9,1,25.8,C
1993,9,2,25.4,C
1993,9,3,26.1,C
1993,9,4,26.1,C
1993,9,5,26.0,C
1993,9,6,25.7,C
1993,9,7,25.5,#
1993,9,8,25.3,C
1993,9,9,25.5,C
1993,9,10,25.3,C
1993,9,11,24.9,C
1993,9,12,25.8,#
1993,9,13,24.8,#
1993,9,14,25.1,#
1993,9,15,26.0,#
1993,9,16,26.1,#
1993,9,17,23.7,C
1993,9,18,24.7,#
1993,9,19,25.9,C
1993,9,20,25.4,C
1993,9,21,25.8,C
1993,9,22,25.9,#
1993,9,23,23.4,C
1993,9,24,23.8,#
1993,9,25,22.7,C
1993,9,26,22.3,C
1993,9,27,23.7,C
1993,9,28,24.9,C
1993,9,29,24.8,#
1993,9,30,24.0,#
1993,10,1,22.3,C
1993,10,2,22.9,C
1993,10,3,22.6,C
1993,10,4,22.0,C
1993,10,5,23.9,C
1993,10,6,22.6,C
1993,10,7,21.9,#
1993,10,8,21.3,C
1993,10,9,22.0,#
1993,10,10,21.9,C
1993,10,11,22.2,C
1993,10,12,22.5,#
1993,10,13,22.8,#
1993,10,14,22.2,C
1993,10,15,23.9,C
1993,10,16,23.8,C
1993,10,17,24.1,C
1993,10,18,23.2,C
1993,10,19,21.4,#
1993,10,20,21.3,#
1993,10,21,22.3,C
1993,10,22,21.7,#
1993,10,23,21.6,#
1993,10,24,22.3,#
1993,10,25,22.5,C
1993,10,26,22.5,C
1993,10,27,23.1,C
1993,10,28,22.6,C
1993,10,29,20.9,C
1993,10,30,18.6,C
1993,10,31,16.2,C
1993,11,1,16.6,C
1993,11,2,18.0,#
1993,11,3,18.6,#
1993,11,4,21.4,#
1993,11,5,22.4,C
1993,11,6,23.0,C
1993,11,7,22.7,C
1993,11,8,23.4,C
1993,11,9,23.1,C
1993,11,10,22.8,C
1993,11,11,22.1,C
1993,11,12,21.3,C
1993,11,13,19.7,C
1993,11,14,19.8,#
1993,11,15,20.4,C
1993,11,16,21.6,C
1993,11,17,21.6,#
1993,11,18,20.7,#
1993,11,19,20.3,C
1993,11,20,21.7,C
1993,11,21,12.3,C
1993,11,22,10.7,#
1993,11,23,15.1,C
1993,11,24,12.8,C
1993,11,25,13.7,#
1993,11,26,15.8,C
1993,11,27,16.8,#
1993,11,28,18.0,C
1993,11,29,17.8,C
1993,11,30,19.6,C
1993,12,1,20.0,C
1993,12,2,20.3,C
1993,12,3,20.4,C
1993,12,4,16.4,C
1993,12,5,13.7,C
1993,12,6,13.4,C
1993,12,7,13.5,C
1993,12,8,15.0,C
1993,12,9,18.2,C
1993,12,10,18.8,C
1993,12,11,17.2,C
1993,12,12,17.3,C
1993,12,13,17.3,#
1993,12,14,11.9,C
1993,12,15,10.7,#
1993,12,16,10.4,C
1993,12,17,8.5,#
1993,12,18,9.9,C
1993,12,19,11.8,C
1993,12,20,14.6,#
1993,12,21,11.7,#
1993,12,22,9.6,#
1993,12,23,9.7,#
1993,12,24,11.9,C
1993,12,25,13.2,C
1993,12,26,12.0,C
1993,12,27,12.9,C
1993,12,28,12.6,#
1993,12,29,13.2,C
1993,12,30,16.1,#
1993,12,31,15.9,C
1994,1,1,13.9,C
1994,1,2,14.5,C
1994,1,3,17.7,C
1994,1,4,16.7,C
1994,1,5,16.8,C
1994,1,6,16.3,C
1994,1,7,16.7,#
1994,1,8,16.9,C
1994,1,9,16.5,#
1994,1,10,17.0,C
1994,1,11,16.7,C
1994,1,12,16.2,C
1994,1,13,14.7,C
1994,1,14,11.8,C
1994,1,15,12.9,C
1994,1,16,16.0,C
1994,1,17,17.8,C
1994,1,18,14.4,C
1994,1,19,12.9,C
1994,1,20,8.7,C
1994,1,21,7.0,C
1994,1,22,9.8,C
1994,1,23,8.8,#
1994,1,24,11.6,C
1994,1,25,11.5,#
1994,1,26,12.9,C
1994,1,27,14.1,C
1994,1,28,12.6,C
1994,1,29,14.6,C
1994,1,30,13.7,#
1994,1,31,14.4,C
1994,2,1,18.5,#
1994,2,2,15.2,#
1994,2,3,14.2,#
1994,2,4,15.3,#
1994,2,5,17.6,C
1994,2,6,18.3,#
1994,2,7,17.2,C
1994,2,8,16.9,C
1994,2,9,16.6,C
1994,2,10,14.9,C
1994,2,11,15.7,#
1994,2,12,15.5,C
1994,2,13,13.9,C
1994,2,14,14.8,C
1994,2,15,17.4,C
1994,2,16,15.1,#
1994,2,17,14.7,C
1994,2,18,14.5,C
1994,2,19,14.9,C
1994,2,20,13.3,C
1994,2,21,13.0,#
1994,2,22,15.8,C
1994,2,23,16.9,C
1994,2,24,15.3,C
1994,2,25,12.3,C
1994,2,26,12.3,C
1994,2,27,11.0,C
1994,2,28,10.9,C
1994,3,1,10.5,C
1994,3,2,11.4,#
1994,3,3,11.3,C
1994,3,4,13.3,#
1994,3,5,14.9,C
1994,3,6,17.2,C
1994,3,7,18.5,C
1994,3,8,20.2,C
1994,3,9,16.9,#
1994,3,10,14.9,#
1994,3,11,14.4,#
1994,3,12,16.5,#
1994,3,13,13.6,#
1994,3,14,12.1,C
1994,3,15,11.9,C
1994,3,16,14.3,#
1994,3,17,16.0,C
1994,3,18,15.0,#
1994,3,19,13.2,C
1994,3,20,13.1,C
1994,3,21,15.8,C
1994,3,22,15.5,C
1994,3,23,15.3,C
1994,3,24,16.8,#
1994,3,25,15.8,#
1994,3,26,16.3,C
1994,3,27,15.2,#
1994,3,28,16.2,#
1994,3,29,18.7,#
1994,3,30,18.3,#
1994,3,31,18.5,#
1994,4,1,18.3,#
1994,4,2,19.3,#
1994,4,3,20.3,#
1994,4,4,19.9,#
1994,4,5,20.6,#
1994,4,6,21.2,#
1994,4,7,21.3,#
1994,4,8,21.6,#
1994,4,9,20.4,C
1994,4,10,19.4,C
1994,4,11,20.7,C
1994,4,12,20.3,#
1994,4,13,17.4,C
1994,4,14,17.6,C
1994,4,15,18.9,C
1994,4,16,21.3,C
1994,4,17,21.1,#
1994,4,18,22.6,C
1994,4,19,23.0,C
1994,4,20,24.7,#
1994,4,21,23.6,#
1994,4,22,22.8,#
1994,4,23,24.0,C
1994,4,24,24.8,C
1994,4,25,26.7,#
1994,4,26,26.7,#
1994,4,27,26.4,#
1994,4,28,25.7,#
1994,4,29,24.0,#
1994,4,30,24.4,C
1994,5,1,25.5,C
1994,5,2,26.5,C
1994,5,3,22.2,C
1994,5,4,21.4,C
1994,5,5,21.2,C
1994,5,6,21.6,C
1994,5,7,22.1,C
1994,5,8,22.6,C
1994,5,9,23.8,#
1994,5,10,24.9,#
1994,5,11,26.0,C
1994,5,12,26.0,C
1994,5,13,25.8,#
1994,5,14,27.1,C
1994,5,15,25.8,C
1994,5,16,26.8,#
1994,5,17,25.8,C
1994,5,18,24.8,C
1994,5,19,23.9,C
1994,5,20,24.0,#
1994,5,21,24.7,#
1994,5,22,25.3,C
1994,5,23,25.6,#
1994,5,24,26.1,#
1994,5,25,26.7,C
1994,5,26,27.0,C
1994,5,27,26.3,C
1994,5,28,24.3,C
1994,5,29,25.0,C
1994,5,30,26.0,C
1994,5,31,24.0,C
1994,6,1,24.2,#
1994,6,2,24.5,C
1994,6,3,23.3,#
1994,6,4,23.8,C
1994,6,5,25.3,C
1994,6,6,26.5,#
1994,6,7,25.2,#
1994,6,8,23.4,C
1994,6,9,26.2,C
1994,6,10,24.9,C
1994,6,11,26.3,#
1994,6,12,26.8,#
1994,6,13,27.0,C
1994,6,14,27.0,C
1994,6,15,27.5,C
1994,6,16,26.8,#
1994,6,17,27.6,C
1994,6,18,24.2,C
1994,6,19,24.1,C
1994,6,20,24.9,#
1994,6,21,25.2,C
1994,6,22,25.6,#
1994,6,23,27.1,#
1994,6,24,26.1,#
1994,6,25,24.8,C
1994,6,26,26.4,C
1994,6,27,26.5,C
1994,6,28,26.7,C
1994,6,29,26.8,C
1994,6,30,26.9,C
1994,7,1,27.4,C
1994,7,2,27.8,#
1994,7,3,25.6,C
1994,7,4,24.4,C
1994,7,5,23.8,C
1994,7,6,25.7,C
1994,7,7,24.3,C
1994,7,8,24.9,C
1994,7,9,25.9,#
1994,7,10,27.0,#
1994,7,11,24.4,C
1994,7,12,22.4,#
1994,7,13,25.2,C
1994,7,14,24.0,#
1994,7,15,24.2,#
1994,7,16,25.6,C
1994,7,17,26.2,C
1994,7,18,26.0,#
1994,7,19,26.0,C
1994,7,20,25.5,#
1994,7,21,25.3,#
1994,7,22,24.4,#
1994,7,23,23.3,#
1994,7,24,23.4,C
1994,7,25,24.6,#
1994,7,26,24.8,#
1994,7,27,25.2,C
1994,7,28,25.3,C
1994,7,29,25.6,C
1994,7,30,26.4,C
1994,7,31,26.9,C
1994,8,1,26.7,C
1994,8,2,26.5,#
1994,8,3,26.2,C
1994,8,4,24.7,C
1994,8,5,24.3,#
1994,8,6,24.9,#
1994,8,7,23.3,#
1994,8,8,24.5,#
1994,8,9,24.8,C
1994,8,10,24.2,C
1994,8,11,27.4,#
1994,8,12,27.3,#
1994,8,13,24.6,C
1994,8,14,23.9,C
1994,8,15,24.2,C
1994,8,16,23.2,#
1994,8,17,23.9,#
1994,8,18,23.8,#
1994,8,19,25.9,C
1994,8,20,26.0,#
1994,8,21,24.8,C
1994,8,22,25.4,#
1994,8,23,26.6,C
1994,8,24,27.1,#
1994,8,25,26.8,C
1994,8,26,23.4,C
1994,8,27,23.9,C
1994,8,28,23.9,C
1994,8,29,25.1,C
1994,8,30,26.2,C
1994,8,31,25.9,C
1994,9,1,26.2,C
1994,9,2,27.0,#
1994,9,3,26.0,C
1994,9,4,25.5,C
1994,9,5,25.2,C
1994,9,6,25.7,#
1994,9,7,25.1,#
1994,9,8,26.6,C
1994,9,9,26.0,#
1994,9,10,27.2,#
1994,9,11,25.5,#
1994,9,12,24.4,#
1994,9,13,24.7,C
1994,9,14,24.0,C
1994,9,15,24.9,C
1994,9,16,24.9,C
1994,9,17,24.2,#
1994,9,18,22.7,C
1994,9,19,23.5,C
1994,9,20,23.9,#
1994,9,21,25.7,C
1994,9,22,25.6,C
1994,9,23,24.2,#
1994,9,24,23.6,#
1994,9,25,23.9,C
1994,9,26,23.9,#
1994,9,27,23.9,#
1994,9,28,22.8,#
1994,9,29,23.4,#
1994,9,30,23.7,C
1994,10,1,22.9,C
1994,10,2,23.3,C
1994,10,3,23.9,#
1994,10,4,23.4,C
1994,10,5,23.9,C
1994,10,6,24.2,C
1994,10,7,24.4,C
1994,10,8,24.3,C
1994,10,9,24.6,C
1994,10,10,25.3,C
1994,10,11,24.8,C
1994,10,12,23.3,C
1994,10,13,24.6,C
1994,10,14,24.6,C
1994,10,15,25.0,C
1994,10,16,25.4,C
1994,10,17,25.0,C
1994,10,18,25.4,C
1994,10,19,22.8,C
1994,10,20,19.5,C
1994,10,21,16.6,C
1994,10,22,15.5,C
1994,10,23,16.4,C
1994,10,24,17.6,#
1994,10,25,18.6,C
1994,10,26,20.1,#
1994,10,27,20.3,C
1994,10,28,20.4,#
1994,10,29,21.2,C
1994,10,30,19.2,C
1994,10,31,18.2,#
1994,11,1,19.3,C
1994,11,2,19.1,C
1994,11,3,19.6,C
1994,11,4,19.9,C
1994,11,5,19.9,C
1994,11,6,19.0,C
1994,11,7,19.6,#
1994,11,8,19.8,#
1994,11,9,19.8,#
1994,11,10,19.1,#
1994,11,11,20.0,C
1994,11,12,19.9,C
1994,11,13,20.8,C
1994,11,14,22.2,C
1994,11,15,21.8,C
1994,11,16,21.4,C
1994,11,17,21.2,#
1994,11,18,20.4,#
1994,11,19,20.9,C
1994,11,20,21.5,C
1994,11,21,20.4,#
1994,11,22,19.2,#
1994,11,23,19.5,C
1994,11,24,19.8,C
1994,11,25,20.0,#
1994,11,26,19.7,#
1994,11,27,19.4,#
1994,11,28,19.9,C
1994,11,29,21.7,C
1994,11,30,21.6,#
1994,12,1,21.8,#
1994,12,2,21.5,C
1994,12,3,18.9,C
1994,12,4,17.0,C
1994,12,5,16.2,#
1994,12,6,18.5,#
1994,12,7,19.1,#
1994,12,8,19.8,#
1994,12,9,21.8,#
1994,12,10,21.6,#
1994,12,11,22.1,#
1994,12,12,20.3,#
1994,12,13,15.8,#
1994,12,14,16.6,#
1994,12,15,17.4,#
1994,12,16,16.7,#
1994,12,17,16.9,C
1994,12,18,14.7,C
1994,12,19,15.7,C
1994,12,20,14.8,#
1994,12,21,12.9,C
1994,12,22,12.7,C
1994,12,23,14.8,C
1994,12,24,17.1,C
1994,12,25,17.0,C
1994,12,26,17.7,C
1994,12,27,17.5,C
1994,12,28,16.5,C
1994,12,29,15.5,C
1994,12,30,16.8,#
1994,12,31,17.7,C
1995,1,1,15.3,#
1995,1,2,15.3,#
1995,1,3,13.1,#
1995,1,4,10.9,#
1995,1,5,9.3,#
1995,1,6,9.8,#
1995,1,7,11.0,#
1995,1,8,13.8,#
1995,1,9,15.4,#
1995,1,10,16.4,C
1995,1,11,16.3,C
1995,1,12,14.0,C
1995,1,13,13.1,C
1995,1,14,13.7,C
1995,1,15,13.9,#
1995,1,16,14.2,#
1995,1,17,13.8,C
1995,1,18,15.4,C
1995,1,19,17.4,#
1995,1,20,17.0,C
1995,1,21,16.6,C
1995,1,22,18.5,C
1995,1,23,14.5,#
1995,1,24,13.2,#
1995,1,25,14.2,C
1995,1,26,14.2,C
1995,1,27,10.9,C
1995,1,28,10.1,C
1995,1,29,10.0,C
1995,1,30,10.6,C
1995,1,31,8.9,C
1995,2,1,10.9,C
1995,2,2,11.3,C
1995,2,3,11.9,#
1995,2,4,10.1,C
1995,2,5,10.2,C
1995,2,6,8.7,#
1995,2,7,11.3,#
1995,2,8,12.2,#
1995,2,9,14.0,#
1995,2,10,14.4,#
1995,2,11,14.2,C
1995,2,12,14.1,C
1995,2,13,16.3,#
1995,2,14,14.6,C
1995,2,15,13.5,C
1995,2,16,14.3,C
1995,2,17,13.8,C
1995,2,18,14.0,C
1995,2,19,14.9,#
1995,2,20,14.1,C
1995,2,21,13.4,#
1995,2,22,12.9,#
1995,2,23,12.9,#
1995,2,24,13.2,C
1995,2,25,12.2,#
1995,2,26,11.9,C
1995,2,27,11.8,C
1995,2,28,13.1,#
1995,3,1,13.0,C
1995,3,2,12.9,#
1995,3,3,16.1,#
1995,3,4,14.0,C
1995,3,5,12.7,C
1995,3,6,13.5,#
1995,3,7,15.3,#
1995,3,8,16.6,C
1995,3,9,17.4,#
1995,3,10,17.2,C
1995,3,11,15.3,C
1995,3,12,15.1,C
1995,3,13,14.2,#
1995,3,14,14.0,C
1995,3,15,15.8,C
1995,3,16,18.8,#
1995,3,17,13.2,#
1995,3,18,11.7,C
1995,3,19,14.6,C
1995,3,20,15.2,C
1995,3,21,15.6,#
1995,3,22,17.0,C
1995,3,23,19.1,C
1995,3,24,19.8,#
1995,3,25,15.9,C
1995,3,26,13.4,C
1995,3,27,14.1,#
1995,3,28,16.7,C
1995,3,29,17.8,#
1995,3,30,20.2,#
1995,3,31,16.5,C
1995,4,1,15.8,C
1995,4,2,15.4,#
1995,4,3,14.1,#
1995,4,4,14.7,C
1995,4,5,15.3,C
1995,4,6,18.1,C
1995,4,7,17.6,#
1995,4,8,17.0,C
1995,4,9,20.2,C
1995,4,10,19.4,C
1995,4,11,19.2,C
1995,4,12,19.0,#
1995,4,13,18.8,#
1995,4,14,24.4,C
1995,4,15,25.1,#
1995,4,16,23.9,C
1995,4,17,23.8,C
1995,4,18,22.7,#
1995,4,19,19.1,C
1995,4,20,17.4,C
1995,4,21,19.5,#
1995,4,22,21.7,C
1995,4,23,23.9,C
1995,4,24,22.7,C
1995,4,25,22.3,#
1995,4,26,22.6,C
1995,4,27,21.0,#
1995,4,28,22.4,C
1995,4,29,23.1,C
1995,4,30,23.8,C
1995,5,1,24.5,C
1995,5,2,24.6,C
1995,5,3,24.4,#
1995,5,4,20.8,#
1995,5,5,20.2,C
1995,5,6,20.8,C
1995,5,7,22.3,C
1995,5,8,22.0,#
1995,5,9,23.0,C
1995,5,10,22.1,C
1995,5,11,22.7,C
1995,5,12,22.9,C
1995,5,13,22.1,C
1995,5,14,23.3,C
1995,5,15,21.4,#
1995,5,16,20.8,#
1995,5,17,21.0,#
1995,5,18,22.4,C
1995,5,19,25.0,#
1995,5,20,27.5,#
1995,5,21,26.2,#
1995,5,22,22.3,#
1995,5,23,22.0,#
1995,5,24,22.0,#
1995,5,25,23.9,#
1995,5,26,26.0,#
1995,5,27,27.2,#
1995,5,28,26.4,C
1995,5,29,26.4,C
1995,5,30,26.3,C
1995,5,31,27.0,C
1995,6,1,25.8,C
1995,6,2,26.8,#
1995,6,3,26.6,C
1995,6,4,26.4,C
1995,6,5,25.9,C
1995,6,6,26.1,#
1995,6,7,25.0,#
1995,6,8,25.0,#
1995,6,9,24.7,#
1995,6,10,24.9,C
1995,6,11,24.2,C
1995,6,12,24.2,#
1995,6,13,24.9,#
1995,6,14,25.0,#
1995,6,15,27.8,#
1995,6,16,28.1,#
1995,6,17,27.4,#
1995,6,18,25.2,#
1995,6,19,27.7,C
1995,6,20,27.0,C
1995,6,21,27.7,C
1995,6,22,28.1,#
1995,6,23,28.4,#
1995,6,24,28.5,#
1995,6,25,27.9,C
1995,6,26,26.7,C
1995,6,27,27.9,#
1995,6,28,26.1,C
1995,6,29,27.4,#
1995,6,30,26.1,#
1995,7,1,25.5,C
1995,7,2,25.3,C
1995,7,3,24.5,#
1995,7,4,23.3,#
1995,7,5,24.3,#
1995,7,6,25.8,#
1995,7,7,26.5,#
1995,7,8,24.6,C
1995,7,9,25.0,#
1995,7,10,27.0,#
1995,7,11,27.3,#
1995,7,12,24.5,#
1995,7,13,24.3,C
1995,7,14,23.6,#
1995,7,15,23.1,#
1995,7,16,24.1,C
1995,7,17,25.5,#
1995,7,18,26.4,#
1995,7,19,27.0,#
1995,7,20,27.2,#
1995,7,21,27.7,C
1995,7,22,28.1,#
1995,7,23,28.2,C
1995,7,24,25.9,#
1995,7,25,24.7,#
1995,7,26,25.5,#
1995,7,27,23.4,#
1995,7,28,24.3,#
1995,7,29,26.4,C
1995,7,30,27.2,C
1995,7,31,25.0,#
1995,8,1,26.9,C
1995,8,2,24.2,#
1995,8,3,23.2,#
1995,8,4,22.9,#
1995,8,5,23.7,#
1995,8,6,24.3,#
1995,8,7,24.7,C
1995,8,8,25.4,C
1995,8,9,25.2,#
1995,8,10,26.1,C
1995,8,11,23.7,#
1995,8,12,23.2,#
1995,8,13,24.0,#
1995,8,14,22.5,#
1995,8,15,22.8,#
1995,8,16,25.7,C
1995,8,17,24.7,C
1995,8,18,25.0,C
1995,8,19,25.7,#
1995,8,20,26.2,C
1995,8,21,26.8,C
1995,8,22,26.9,#
1995,8,23,26.3,#
1995,8,24,25.5,C
1995,8,25,26.0,#
1995,8,26,24.0,C
1995,8,27,24.1,C
1995,8,28,24.7,C
1995,8,29,24.8,#
1995,8,30,26.0,C
1995,8,31,24.1,#
1995,9,1,24.4,#
1995,9,2,25.7,C
1995,9,3,26.1,C
1995,9,4,26.1,#
1995,9,5,27.0,C
1995,9,6,25.2,#
1995,9,7,26.9,#
1995,9,8,26.7,C
1995,9,9,26.9,C
1995,9,10,26.2,C
1995,9,11,26.9,C
1995,9,12,26.4,#
1995,9,13,26.9,C
1995,9,14,25.9,C
1995,9,15,26.3,#
1995,9,16,25.7,#
1995,9,17,24.0,#
1995,9,18,24.8,C
1995,9,19,23.0,#
1995,9,20,22.3,#
1995,9,21,22.1,C
1995,9,22,23.3,C
1995,9,23,23.6,C
1995,9,24,23.4,C
1995,9,25,24.4,#
1995,9,26,24.6,#
1995,9,27,24.9,#
1995,9,28,25.3,#
1995,9,29,25.2,C
1995,9,30,25.6,#
1995,10,1,24.9,#
1995,10,2,23.2,#
1995,10,3,24.6,#
1995,10,4,25.4,#
1995,10,5,23.8,#
1995,10,6,23.6,#
1995,10,7,22.6,#
1995,10,8,22.7,#
1995,10,9,23.8,#
1995,10,10,23.2,#
1995,10,11,24.2,#
1995,10,12,24.5,#
1995,10,13,24.4,#
1995,10,14,23.9,C
1995,10,15,22.5,#
1995,10,16,23.4,#
1995,10,17,23.0,#
1995,10,18,23.1,#
1995,10,19,22.9,#
1995,10,20,23.3,#
1995,10,21,23.7,#
1995,10,22,23.4,C
1995,10,23,22.7,#
1995,10,24,22.5,#
1995,10,25,21.3,#
1995,10,26,20.6,#
1995,10,27,22.7,#
1995,10,28,22.1,C
1995,10,29,22.0,C
1995,10,30,22.0,C
1995,10,31,22.1,#
1995,11,1,20.8,C
1995,11,2,18.9,C
1995,11,3,18.5,#
1995,11,4,19.3,C
1995,11,5,20.8,C
1995,11,6,22.2,#
1995,11,7,21.0,#
1995,11,8,20.1,#
1995,11,9,18.7,#
1995,11,10,19.3,#
1995,11,11,19.1,#
1995,11,12,19.4,C
1995,11,13,20.4,C
1995,11,14,15.7,#
1995,11,15,14.8,C
1995,11,16,16.2,#
1995,11,17,17.6,#
1995,11,18,20.5,C
1995,11,19,19.9,C
1995,11,20,18.2,C
1995,11,21,16.9,#
1995,11,22,16.7,C
1995,11,23,16.3,C
1995,11,24,13.7,#
1995,11,25,13.3,C
1995,11,26,15.9,#
1995,11,27,17.6,#
1995,11,28,18.7,#
1995,11,29,19.1,#
1995,11,30,18.9,#
1995,12,1,18.5,#
1995,12,2,17.4,#
1995,12,3,16.9,#
1995,12,4,15.0,#
1995,12,5,14.6,#
1995,12,6,13.3,C
1995,12,7,12.3,C
1995,12,8,11.9,C
1995,12,9,11.1,C
1995,12,10,13.7,C
1995,12,11,15.1,C
1995,12,12,15.0,#
1995,12,13,16.3,#
1995,12,14,18.2,C
1995,12,15,17.1,#
1995,12,16,18.0,C
1995,12,17,16.5,#
1995,12,18,14.2,C
1995,12,19,13.6,C
1995,12,20,14.6,#
1995,12,21,13.1,#
1995,12,22,14.0,C
1995,12,23,14.3,#
1995,12,24,15.3,C
1995,12,25,13.2,#
1995,12,26,11.0,#
1995,12,27,11.8,#
1995,12,28,11.6,#
1995,12,29,11.2,#
1995,12,30,11.3,#
1995,12,31,11.0,#
1996,1,1,12.7,#
1996,1,2,12.5,#
1996,1,3,13.9,#
1996,1,4,14.3,#
1996,1,5,16.6,#
1996,1,6,19.5,C
1996,1,7,19.1,#
1996,1,8,13.9,#
1996,1,9,11.8,#
1996,1,10,13.2,#
1996,1,11,15.2,#
1996,1,12,15.7,#
1996,1,13,16.2,#
1996,1,14,15.4,C
1996,1,15,17.9,#
1996,1,16,16.8,C
1996,1,17,15.7,C
1996,1,18,17.2,#
1996,1,19,13.9,#
1996,1,20,13.7,#
1996,1,21,16.2,C
1996,1,22,17.5,#
1996,1,23,15.3,#
1996,1,24,16.5,#
1996,1,25,14.5,#
1996,1,26,11.9,C
1996,1,27,10.9,C
1996,1,28,12.6,C
1996,1,29,14.6,C
1996,1,30,14.3,C
1996,1,31,14.2,#
1996,2,1,12.5,C
1996,2,2,12.1,#
1996,2,3,12.2,#
1996,2,4,12.2,C
1996,2,5,15.4,#
1996,2,6,12.3,#
1996,2,7,13.0,C
1996,2,8,16.0,C
1996,2,9,15.0,C
1996,2,10,11.8,C
1996,2,11,12.0,C
1996,2,12,14.8,#
1996,2,13,17.4,C
1996,2,14,19.1,#
1996,2,15,20.7,#
1996,2,16,16.6,#
1996,2,17,14.3,C
1996,2,18,7.5,C
1996,2,19,6.0,C
1996,2,20,5.1,C
1996,2,21,5.1,C
1996,2,22,6.5,C
1996,2,23,7.8,C
1996,2,24,7.9,C
1996,2,25,10.1,C
1996,2,26,11.6,#
1996,2,27,9.8,#
1996,2,28,10.5,C
1996,2,29,14.5,C
1996,3,1,15.5,C
1996,3,2,13.6,C
1996,3,3,13.7,#
1996,3,4,15.0,C
1996,3,5,15.8,C
1996,3,6,16.9,C
1996,3,7,19.4,C
1996,3,8,18.7,C
1996,3,9,13.1,#
1996,3,10,10.1,C
1996,3,11,11.0,C
1996,3,12,12.9,C
1996,3,13,14.2,C
1996,3,14,16.4,#
1996,3,15,22.0,C
1996,3,16,23.5,#
1996,3,17,23.7,C
1996,3,18,16.5,C
1996,3,19,15.7,C
1996,3,20,16.9,#
1996,3,21,17.2,#
1996,3,22,17.2,C
1996,3,23,16.6,C
1996,3,24,17.6,C
1996,3,25,19.6,#
1996,3,26,16.6,#
1996,3,27,20.3,#
1996,3,28,18.5,#
1996,3,29,19.0,C
1996,3,30,20.6,C
1996,3,31,24.2,C
1996,4,1,15.1,#
1996,4,2,11.3,#
1996,4,3,10.2,#
1996,4,4,10.7,C
1996,4,5,15.0,C
1996,4,6,17.7,C
1996,4,7,20.4,#
1996,4,8,19.7,C
1996,4,9,17.5,#
1996,4,10,16.5,C
1996,4,11,15.6,#
1996,4,12,15.8,C
1996,4,13,16.6,C
1996,4,14,17.1,C
1996,4,15,19.3,C
1996,4,16,19.4,C
1996,4,17,21.7,#
1996,4,18,23.2,C
1996,4,19,20.3,#
1996,4,20,17.4,C
1996,4,21,17.3,C
1996,4,22,16.7,#
1996,4,23,15.5,#
1996,4,24,17.5,#
1996,4,25,19.7,#
1996,4,26,20.1,C
1996,4,27,20.9,C
1996,4,28,22.4,C
1996,4,29,22.5,#
1996,4,30,21.5,C
1996,5,1,21.9,#
1996,5,2,24.0,#
1996,5,3,22.4,#
1996,5,4,23.6,#
1996,5,5,20.3,C
1996,5,6,20.3,#
1996,5,7,21.8,C
1996,5,8,22.0,C
1996,5,9,20.3,C